Location: D�derode
(51.8092°N, 10.1065°E)
Time: 22:48:57
(UTC+00:00)

Cosmos 1869 Rocket - Pass Details

Date: 24 April 2021
Orbit: 603 x 634 km, 82.5° (Epoch: 13 May)

Event Time Altitude Azimuth Distance (km) Brightness Sun altitude
Rises 01:05:32 0° 332° (NNW) 2,890 7.5 -21.2°
Reaches altitude 10° 01:09:16 10° 299° (WNW) 1,971 6.1 -20.9°
Enters shadow 01:10:17 11° 285° (WNW) 1,883 5.9 -20.9°
